Waarnemingen

Advertentie
Mijn weer
Koksijde, België (6400): temperatuur & dauwpunt: 17.10.2020 10:00:00 - 23.10.2020 10:00:00 (CEST)Koksijde, België (6400): windsnelheid & windstoten: 17.10.2020 10:00:00 - 23.10.2020 10:00:00 (CEST)Koksijde, België (6400): windrichting: 17.10.2020 10:00:00 - 23.10.2020 10:00:00 (CEST)Koksijde, België (6400): luchtdruk: 17.10.2020 10:00:00 - 23.10.2020 10:00:00 (CEST)Koksijde, België (6400): zicht: 17.10.2020 10:00:00 - 23.10.2020 10:00:00 (CEST)
Datum & Tijd tt [°C] td [°C] ff [km/u] ff [kn] fx [km/u] fx [kn] dd ppp [hPa] vv [km]
23.10.2020 10:00:00 10,1 10,1 4 2 11 6 N 1010,1 1,2
23.10.2020 09:00:00 8,9 8,9 9 5 11 6 ZO 1010,0 1,2
23.10.2020 08:00:00 8,0 8,0 4 2 - - N 1009,6 0,3
23.10.2020 07:00:00 8,3 8,3 4 2 7 4 N 1010,0 0,7
23.10.2020 06:00:00 7,8 7,6 4 2 7 4 - 1010,2 2,0
23.10.2020 05:00:00 9,3 8,8 4 2 - - N 1010,6 8
23.10.2020 04:00:00 9,5 9,2 4 2 7 4 N 1011,2 6
23.10.2020 03:00:00 10,1 9,7 4 2 7 4 - 1011,7 10
23.10.2020 02:00:00 9,4 9,3 4 2 - - N 1011,8 9
23.10.2020 01:00:00 9,4 9,1 4 2 11 6 N 1011,8 9
23.10.2020 00:00:00 8,7 8,2 5 3 7 4 ZZW 1012,0 10
22.10.2020 23:00:00 10,1 9,3 7 4 - - ZW 1012,0 19
22.10.2020 22:00:00 10,9 9,7 7 4 11 6 ZW 1011,7 20
22.10.2020 21:00:00 10,6 9,3 7 4 11 6 ZZW 1011,7 13
22.10.2020 20:00:00 12,0 10,1 4 2 - - N 1011,7 20
22.10.2020 19:00:00 13,3 11,0 11 6 22 12 ZW 1011,2 20
22.10.2020 18:00:00 15,0 11,1 14 8 29 16 ZW 1010,7 20
22.10.2020 17:00:00 16,1 11,5 22 12 - - ZW 1010,5 20
22.10.2020 16:00:00 15,6 11,0 22 12 32 18 ZW 1010,2 15
22.10.2020 15:00:00 15,7 11,6 22 12 29 16 ZZW 1010,3 15
22.10.2020 14:00:00 15,4 12,1 22 12 - - ZZW 1010,6 15
22.10.2020 13:00:00 13,9 11,6 18 10 29 16 ZZW 1011,0 6
22.10.2020 12:00:00 13,4 11,2 14 8 25 14 ZZW 1010,6 15
22.10.2020 11:00:00 12,2 10,7 14 8 - - ZZW 1010,7 15
22.10.2020 10:00:00 10,8 9,7 14 8 22 12 ZZW 1010,3 15
22.10.2020 09:00:00 10,3 9,3 11 6 18 10 Z 1009,5 15
22.10.2020 08:00:00 10,7 9,7 11 6 - - ZZW 1008,7 15
22.10.2020 07:00:00 11,2 10,1 18 10 29 16 ZZW 1008,7 10
22.10.2020 06:00:00 11,6 10,5 18 10 29 16 ZZW 1008,3 20
22.10.2020 05:00:00 12,1 10,8 18 10 - - ZZW 1008,3 20
22.10.2020 04:00:00 12,5 11,2 14 8 25 14 ZW 1007,7 20
22.10.2020 03:00:00 13,1 11,8 18 10 22 12 ZZW 1007,7 20
22.10.2020 02:00:00 13,1 12,1 11 6 - - ZZW 1007,2 20
22.10.2020 01:00:00 13,4 12,3 14 8 25 14 ZZW 1006,7 20
22.10.2020 00:00:00 13,7 12,6 18 10 25 14 ZZW 1006,2 20
21.10.2020 23:00:00 14,0 13,0 18 10 - - ZZW - 10
21.10.2020 22:00:00 - - - - - - - - -
21.10.2020 21:00:00 - - - - - - - - -
21.10.2020 20:00:00 15,1 13,2 29 16 - - WZW 1003,0 20
21.10.2020 19:00:00 15,3 13,1 36 19 68 37 ZW 1001,1 20
21.10.2020 18:00:00 15,8 14,2 43 23 65 35 ZW 999,6 11
21.10.2020 17:00:00 18,2 12,7 40 21 - - ZW 997,9 20
21.10.2020 16:00:00 18,0 14,1 41 22 58 31 ZZW 997,2 10
21.10.2020 15:00:00 17,5 14,8 42 23 61 33 ZZW 996,1 6
21.10.2020 14:00:00 19,0 13,8 43 23 - - ZZW 994,9 15
21.10.2020 13:00:00 18,2 13,3 40 21 68 37 Z 994,3 15
21.10.2020 12:00:00 16,7 12,5 36 19 50 27 Z 994,7 15
21.10.2020 11:00:00 14,1 12,2 29 16 - - ZZO 995,8 15
21.10.2020 10:00:00 13,1 12,3 29 16 43 23 ZZO 997,6 7
21.10.2020 09:00:00 13,1 12,2 29 16 43 23 ZZO 998,0 9
21.10.2020 08:00:00 13,1 12,3 25 14 - - ZZO 998,5 9
21.10.2020 07:00:00 13,1 12,6 22 12 32 18 ZZO 999,4 6
21.10.2020 06:00:00 13,3 12,9 18 10 25 14 ZZO 1000,3 4,8
21.10.2020 05:00:00 13,6 12,9 21 11 - - ZZO 1001,2 10
21.10.2020 04:00:00 13,6 12,9 18 10 32 18 ZZO 1001,7 11
21.10.2020 03:00:00 14,0 12,9 22 12 29 16 Z 1002,7 20
21.10.2020 02:00:00 14,3 12,9 18 10 - - Z 1003,2 19
21.10.2020 01:00:00 14,6 12,7 18 10 29 16 Z 1003,7 20
21.10.2020 00:00:00 14,5 12,7 18 10 29 16 Z 1004,2 20
20.10.2020 23:00:00 14,5 12,6 18 10 - - Z 1004,5 20
20.10.2020 22:00:00 14,3 12,5 18 10 25 14 Z 1004,6 20
20.10.2020 21:00:00 14,2 12,4 22 12 32 18 Z 1004,8 20
20.10.2020 20:00:00 14,5 12,3 22 12 - - Z 1004,8 20
20.10.2020 19:00:00 14,8 12,0 18 10 29 16 Z 1005,0 20
20.10.2020 18:00:00 14,8 11,8 18 10 40 21 Z 1005,1 20
20.10.2020 17:00:00 15,0 11,6 25 14 - - Z 1005,2 20
20.10.2020 16:00:00 14,5 11,5 18 10 29 16 ZZW 1005,8 18
20.10.2020 15:00:00 14,1 11,4 25 14 32 18 Z 1005,6 18
20.10.2020 14:00:00 14,3 11,2 25 14 - - Z 1005,8 20
20.10.2020 13:00:00 14,1 10,9 18 10 36 19 Z 1006,1 19
20.10.2020 12:00:00 13,6 10,3 22 12 32 18 Z 1005,7 19
20.10.2020 11:00:00 12,1 9,1 18 10 - - Z 1005,7 12
20.10.2020 10:00:00 11,3 8,3 18 10 25 14 Z 1005,7 12
20.10.2020 09:00:00 10,6 7,7 14 8 29 16 Z 1006,0 10
20.10.2020 08:00:00 10,4 7,3 18 10 - - Z 1005,5 10
20.10.2020 07:00:00 10,1 6,8 22 12 32 18 Z 1005,5 20
20.10.2020 06:00:00 9,8 6,4 22 12 32 18 Z 1006,3 20
20.10.2020 05:00:00 9,5 5,9 22 12 - - Z 1006,2 20
20.10.2020 04:00:00 9,6 5,4 18 10 25 14 ZZO 1007,3 20
20.10.2020 03:00:00 10,0 5,3 18 10 29 16 ZZO 1008,0 20
20.10.2020 02:00:00 10,3 5,4 14 8 - - ZZO 1009,2 20
20.10.2020 01:00:00 9,8 5,9 18 10 29 16 ZO 1009,8 20
20.10.2020 00:00:00 10,1 6,7 18 10 25 14 ZO 1010,7 20
19.10.2020 23:00:00 10,0 7,2 14 8 - - ZO 1011,7 18
19.10.2020 22:00:00 10,3 7,5 14 8 22 12 ZO 1012,7 15
19.10.2020 21:00:00 10,6 7,7 11 6 22 12 ZO 1013,6 10
19.10.2020 20:00:00 10,8 8,1 11 6 - - OZO 1014,2 10
19.10.2020 19:00:00 11,6 7,2 11 6 22 12 ZZO 1015,2 15
19.10.2020 18:00:00 12,6 6,6 14 8 29 16 ZZO 1015,2 10
19.10.2020 17:00:00 13,6 6,8 22 12 - - ZZO 1016,2 10
19.10.2020 16:00:00 14,1 7,4 18 10 29 16 Z 1017,1 10
19.10.2020 15:00:00 13,7 7,6 18 10 32 18 Z 1018,0 10
19.10.2020 14:00:00 13,7 8,2 22 12 - - Z 1019,2 10
19.10.2020 13:00:00 14,1 8,7 18 10 29 16 Z 1019,7 10
19.10.2020 12:00:00 12,4 7,9 18 10 29 16 Z 1020,5 10
19.10.2020 11:00:00 11,2 8,4 14 8 - - Z 1020,7 10
19.10.2020 10:00:00 9,5 7,2 4 2 11 6 N 1021,1 10
19.10.2020 09:00:00 9,3 7,0 7 4 14 8 ZZO 1020,7 10
19.10.2020 08:00:00 8,8 6,7 7 4 - - Z 1021,2 10
19.10.2020 07:00:00 8,8 6,7 7 4 7 4 Z 1021,2 10
19.10.2020 06:00:00 9,0 6,6 4 2 7 4 N 1021,7 20
19.10.2020 05:00:00 9,1 7,3 4 2 - - N 1021,8 20
19.10.2020 04:00:00 9,3 7,6 7 4 11 6 ZZW 1022,2 19
19.10.2020 03:00:00 9,3 8,0 7 4 7 4 ZW 1022,8 19
19.10.2020 02:00:00 9,1 8,1 4 2 - - N 1022,8 12
19.10.2020 01:00:00 9,5 8,3 7 4 11 6 ZW 1022,8 15
19.10.2020 00:00:00 9,5 8,2 4 2 11 6 N 1023,2 16
18.10.2020 23:00:00 9,6 8,0 7 4 - - ZW 1023,3 20
18.10.2020 22:00:00 9,6 7,9 4 2 7 4 N 1023,2 20
18.10.2020 21:00:00 9,6 7,3 4 2 11 6 N 1023,1 20
18.10.2020 20:00:00 10,6 6,6 7 4 - - NNW 1023,2 20
18.10.2020 19:00:00 10,7 6,1 4 2 14 8 N 1022,8 20
18.10.2020 18:00:00 11,9 6,5 7 4 18 10 NW 1022,7 20
18.10.2020 17:00:00 12,5 7,0 11 6 - - NW 1022,7 20
18.10.2020 16:00:00 12,8 7,2 14 8 25 14 NW 1022,8 20
18.10.2020 15:00:00 13,6 8,8 14 8 22 12 NW 1023,0 20
18.10.2020 14:00:00 13,2 6,3 11 6 - - NW 1023,5 20
18.10.2020 13:00:00 13,2 8,0 4 2 11 6 N 1023,7 20
18.10.2020 12:00:00 12,0 9,0 5 3 11 6 N 1023,7 10
18.10.2020 11:00:00 12,1 9,0 7 4 - - N 1023,3 20
18.10.2020 10:00:00 11,9 7,9 11 6 18 10 N 1022,7 20
18.10.2020 09:00:00 10,3 9,5 4 2 11 6 N 1022,2 20
18.10.2020 08:00:00 9,3 8,9 7 4 - - ZW 1021,8 12
18.10.2020 07:00:00 9,8 9,2 7 4 7 4 ZZW 1021,7 14
18.10.2020 06:00:00 10,1 9,5 8 4 14 8 W 1021,7 3,6
18.10.2020 05:00:00 9,6 9,0 8 4 - - ZW 1021,7 10
18.10.2020 04:00:00 9,4 9,0 7 4 11 6 WZW 1022,0 13
18.10.2020 03:00:00 9,3 8,9 7 4 7 4 ZZW 1021,8 6
18.10.2020 02:00:00 9,3 8,9 7 4 - - ZZW 1022,1 5
18.10.2020 01:00:00 9,3 9,1 5 3 7 4 Z 1022,0 7
18.10.2020 00:00:00 9,6 9,5 5 3 7 4 Z 1022,0 5
17.10.2020 23:00:00 9,6 9,3 4 2 - - N 1021,8 5
17.10.2020 22:00:00 9,8 9,4 4 2 7 4 N 1021,7 5
17.10.2020 21:00:00 10,0 9,4 4 2 4 2 - 1021,7 4,2
17.10.2020 20:00:00 10,0 9,4 4 2 - - N 1021,7 17
17.10.2020 19:00:00 10,1 9,5 2 1 7 4 - 1021,2 4,5
17.10.2020 18:00:00 10,3 9,1 2 1 4 2 - 1020,8 10
17.10.2020 17:00:00 10,3 8,6 4 2 - - - 1021,0 10
17.10.2020 16:00:00 - - - - - - - - -
17.10.2020 15:00:00 - - - - - - - - -
17.10.2020 14:00:00 11,5 6,8 4 2 - - N 1021,0 19
17.10.2020 13:00:00 11,2 6,3 7 4 11 6 ZW 1021,5 20
17.10.2020 12:00:00 - - - - - - - - -
17.10.2020 11:00:00 8,1 5,9 4 2 - - N 1021,5 9
17.10.2020 10:00:00 6,2 4,9 4 2 7 4 N 1021,6 8

tt = temperatuur
td = dauwpunt
ff = windsnelheid
fx = windstoten
dd = windrichting
ppp = luchtdruk
vv = zicht

Weerstations in de omgeving